CAPE
nan nan nan nan nan nan nan nan nan nan nan nan nan nan nan nan nan nan 0 nan nan nan nan nan nan nan 0 1 0 0 0 0 0 0 0 1 0 0 1 1 1 6 8 9 9 9 11 12 12 5 2 2 4 4 4 6 6 5 12 26 26 38 57 47 47 45 30 19 17 17 20 22 14 14 8 9 13 13 20 26 26 28 31 35 35 30
0 nan nan nan nan nan 0 nan nan nan nan nan nan nan nan nan nan nan nan 0 0 nan nan nan nan nan nan 0 1 1 1 1 1 1 1 0 nan nan 0 nan nan 2 5 7 7 9 11 8 8 1 2 2 4 4 5 2 2 4 14 26 26 38 42 41 41 40 34 27 11 11 10 13 10 10 10 13 19 19 23 28 28 33 38 38 38 40
nan nan nan nan nan nan nan nan nan nan nan nan nan nan nan nan nan nan nan nan nan nan nan nan nan 0 nan 0 3 3 1 2 1 1 1 1 nan nan nan nan nan 1 4 10 10 13 10 5 5 0 2 3 4 4 2 0 0 1 5 14 14 22 24 23 23 23 22 22 9 9 4 6 8 8 15 24 30 30 27 32 32 34 35 37 37 39
nan nan nan 0 0 nan nan nan nan nan nan 0 0 0 nan nan nan nan nan nan nan nan nan 0 0 0 0 0 1 1 2 2 2 2 1 1 0 0 nan nan nan 0 5 13 13 15 11 6 6 3 4 3 1 1 2 0 0 0 1 3 3 8 9 10 10 7 6 7 5 5 3 6 12 12 20 27 29 29 28 31 31 36 38 37 37 35
nan nan nan nan nan nan nan nan nan nan 0 0 nan nan nan nan nan nan 0 nan nan nan nan nan nan nan 0 0 1 1 1 2 2 2 2 1 1 1 0 0 0 1 6 15 15 14 9 5 5 6 5 3 1 1 0 nan nan nan 0 1 1 2 4 4 4 3 2 1 2 2 6 13 18 18 22 28 31 31 32 30 30 33 32 39 39 43
nan nan nan nan nan 0 nan nan nan nan 0 nan nan nan nan nan nan nan nan nan nan nan nan nan nan nan 0 0 1 1 1 1 2 2 2 2 2 2 1 nan nan 0 9 14 14 17 9 5 5 6 6 1 0 0 0 nan nan nan 1 1 1 2 3 3 3 2 2 1 2 2 7 13 17 17 23 27 31 31 32 31 31 29 27 27 27 36
nan nan nan nan nan nan nan nan nan nan nan nan nan nan nan nan nan nan nan nan nan nan nan nan nan nan nan nan 0 0 1 1 2 2 2 2 2 2 1 0 0 0 8 17 17 16 10 8 8 8 4 1 1 1 nan nan nan nan 1 3 3 3 4 4 4 3 0 1 1 1 3 9 13 13 19 25 31 31 33 30 30 26 20 18 18 24
nan nan nan nan nan nan 0 0 nan nan nan nan nan nan nan nan nan nan nan nan nan nan nan nan nan nan nan nan nan nan nan nan nan nan 1 1 1 1 2 1 1 0 2 12 12 18 10 7 7 6 4 3 2 2 1 nan nan nan 0 1 1 3 4 2 2 1 1 0 0 0 1 1 0 0 1 4 6 6 14 20 20 20 17 12 12 12
nan nan nan nan nan nan nan nan 0 0 nan nan nan nan nan nan nan nan nan nan nan nan nan nan nan nan nan nan nan nan 0 0 nan nan nan nan nan nan 1 1 1 1 1 13 13 15 8 7 7 6 4 1 0 0 nan nan nan nan nan 0 0 2 2 1 1 0 nan nan nan nan nan nan nan nan nan nan 0 0 1 4 4 9 11 10 10 9
nan nan nan nan nan nan nan nan nan nan nan nan nan nan nan nan nan nan nan nan nan nan nan nan nan nan nan nan nan nan nan nan 0 0 1 nan 1 1 0 0 0 2 2 9 9 9 4 3 3 4 1 0 nan nan nan nan nan nan nan 0 0 0 0 1 1 0 nan nan nan nan nan nan nan nan nan nan nan nan nan nan nan nan 0 3 3 5
nan nan nan nan nan nan nan nan 0 0 nan nan nan nan nan nan nan nan nan nan nan nan nan nan nan nan nan nan nan nan nan nan nan nan nan nan 0 0 nan nan nan 0 0 3 3 3 0 1 1 1 0 nan nan nan nan nan nan nan nan nan nan 0 nan 0 0 0 nan nan nan nan nan nan nan nan nan nan nan nan nan nan nan nan nan nan nan nan
nan nan nan nan nan nan nan nan nan nan nan nan nan nan nan nan nan nan nan nan nan nan nan nan nan nan nan nan nan nan nan nan nan nan nan nan nan nan nan 0 0 nan 2 3 3 0 nan nan nan nan nan nan nan nan nan nan nan nan nan nan nan nan 0 nan nan nan nan nan nan nan nan nan nan nan nan nan nan nan nan nan nan nan nan nan nan nan
nan nan nan nan nan nan nan nan nan nan nan nan nan nan nan nan nan nan nan nan nan nan nan nan nan nan nan nan nan nan nan nan nan nan nan nan nan nan nan nan nan nan nan nan nan nan nan nan nan nan nan nan nan nan nan nan nan nan nan nan nan nan nan nan nan nan nan nan nan nan nan nan nan nan nan nan nan nan nan nan nan nan nan nan nan nan
nan nan nan nan nan nan nan nan nan nan nan nan nan nan nan nan nan nan nan nan nan nan nan nan nan nan nan nan nan nan nan nan nan nan nan nan nan nan nan nan nan nan nan nan nan nan nan nan nan nan nan nan nan nan nan nan nan nan nan nan nan nan nan nan nan nan nan nan nan nan nan nan nan nan nan nan nan nan nan nan nan nan nan nan nan nan
nan nan nan nan nan nan nan nan nan nan nan nan nan nan nan nan nan nan nan nan nan nan nan nan nan nan nan nan nan nan nan nan nan nan nan nan nan nan nan nan nan nan nan nan nan nan nan nan nan nan nan nan nan nan nan nan nan nan nan nan nan 0 0 nan nan nan nan nan nan nan nan nan nan nan nan nan nan nan nan nan nan nan nan nan nan nan
nan nan nan nan nan nan nan nan nan nan nan nan nan nan nan nan nan nan nan nan nan nan nan nan nan nan nan nan nan nan nan nan nan nan nan nan nan nan nan nan nan nan nan nan nan nan nan nan nan nan nan nan nan nan nan 0 0 nan nan nan nan 0 0 0 0 nan nan nan nan nan nan nan nan nan nan nan nan nan nan nan nan nan nan nan nan nan
nan nan nan nan nan nan nan nan nan nan nan nan nan nan nan nan nan nan nan nan nan nan nan nan nan nan nan nan nan nan nan nan nan nan nan nan nan nan nan nan nan nan nan nan nan nan nan nan nan nan nan 0 nan nan nan 0 0 1 0 0 0 0 0 0 0 nan nan nan nan nan nan nan nan nan nan nan nan nan nan nan nan nan nan nan nan nan
nan nan nan nan nan nan nan nan nan nan nan nan nan nan nan nan nan nan nan nan nan nan nan nan nan nan nan nan nan nan nan nan nan nan nan nan nan nan nan nan nan nan nan nan nan nan nan nan nan nan nan 1 0 0 0 2 2 1 1 0 0 nan nan nan nan nan nan nan nan nan nan nan nan nan nan nan nan nan nan nan nan nan nan nan nan nan
nan nan nan nan nan nan nan nan nan nan nan nan nan nan nan nan nan nan nan nan nan nan nan nan nan nan nan nan nan nan nan nan nan nan nan nan nan nan nan nan nan nan nan nan nan nan nan nan nan 0 nan 0 1 1 2 2 2 2 2 0 0 nan nan nan nan nan nan nan nan nan nan nan nan nan nan nan nan nan nan nan nan nan nan nan nan nan
nan nan nan nan nan nan nan nan nan nan nan nan nan nan nan nan nan nan nan nan nan nan nan nan nan nan nan nan nan nan nan nan nan nan nan nan nan nan nan nan nan nan nan nan nan nan nan nan nan 1 0 nan 3 3 3 3 3 4 2 1 1 0 0 0 0 0 nan nan nan nan nan nan nan nan nan nan nan nan nan nan nan nan nan nan nan nan
nan nan nan nan nan nan nan nan nan nan nan nan nan nan nan nan nan nan nan nan nan nan nan nan nan nan nan nan nan nan nan nan nan nan nan nan nan nan nan nan nan nan nan nan nan nan nan nan nan nan nan nan 1 1 5 5 5 4 4 2 2 1 0 0 0 0 0 0 0 0 nan nan nan nan nan nan nan nan nan nan nan nan nan nan nan nan
nan nan nan nan nan nan nan nan nan nan nan nan nan nan nan nan nan nan nan nan nan nan nan nan nan nan nan nan nan nan nan nan nan nan nan nan nan nan nan nan nan nan nan nan nan nan nan nan nan nan nan 1 nan nan 1 3 3 6 5 4 4 3 1 0 0 0 0 1 1 1 0 nan nan nan nan nan nan nan nan nan nan nan nan nan nan nan
nan nan nan nan nan nan nan nan nan nan nan nan nan nan nan nan nan nan nan nan nan nan nan nan nan nan nan nan nan nan nan nan nan nan nan nan nan nan nan nan nan nan nan nan nan nan nan nan nan nan 0 1 0 0 nan 0 0 1 2 4 4 6 4 6 6 6 5 6 6 6 3 1 1 1 0 nan nan nan nan nan nan nan nan nan nan nan
nan nan nan nan nan nan nan nan nan nan nan nan nan nan nan nan nan nan nan nan nan nan nan nan nan nan nan nan nan nan nan nan nan nan nan nan nan nan nan nan nan nan nan nan nan nan nan nan nan nan 0 0 0 0 nan 0 0 nan 0 0 0 1 0 1 1 2 7 8 14 14 11 9 7 7 4 1 nan nan nan nan nan nan nan nan nan nan
nan nan nan nan nan nan nan nan nan nan nan nan nan nan nan nan nan nan nan nan nan nan nan nan nan nan nan nan nan nan nan nan nan nan nan nan nan nan nan nan nan nan nan nan nan nan nan nan nan nan nan nan nan nan nan 0 0 nan nan 0 0 1 1 1 1 2 1 2 9 9 10 15 14 14 11 8 3 3 0 nan nan nan nan nan nan nan
nan nan nan nan nan nan nan 0 0 0 nan nan nan nan nan nan nan nan nan nan nan nan nan nan nan nan nan nan nan nan nan nan nan nan nan nan nan nan nan nan nan nan nan nan nan nan nan nan nan nan nan nan nan nan nan nan nan nan nan nan nan nan 0 0 0 0 1 2 2 2 3 9 10 10 16 15 10 10 6 1 1 0 nan nan nan nan
0 0 1 1 1 1 1 2 2 2 1 0 nan nan nan nan nan nan nan nan nan nan nan nan nan nan nan nan nan nan nan nan nan nan nan nan nan nan nan nan nan nan nan nan nan nan nan nan nan nan nan nan nan nan nan nan nan nan nan nan nan nan 0 0 0 0 0 1 1 1 2 2 3 3 8 10 13 13 13 7 7 2 0 1 1 nan
1 1 1 1 1 1 2 2 2 2 2 2 1 1 nan nan nan nan nan nan nan nan nan nan nan nan nan nan nan nan nan nan nan nan nan nan nan nan nan nan nan nan nan nan nan nan nan nan nan nan nan nan nan nan nan nan nan nan nan nan nan nan nan nan nan 0 0 0 0 0 1 1 2 2 2 2 4 4 10 13 13 8 4 nan nan nan
0 0 1 1 1 1 2 3 4 4 4 4 2 2 nan nan nan nan nan nan nan nan nan nan nan nan nan nan nan nan nan nan nan nan nan nan nan nan nan nan nan nan nan nan nan nan nan nan nan nan nan nan nan nan nan nan nan nan nan nan nan nan nan nan nan nan nan nan nan nan nan nan nan nan 0 0 1 1 1 10 10 10 2 nan nan nan
nan 3 1 4 4 7 4 2 4 4 5 6 2 2 nan nan nan nan nan nan nan nan nan nan nan nan nan nan nan nan nan nan nan nan nan nan nan nan nan nan nan nan nan nan nan nan nan nan nan nan nan nan nan nan nan nan nan nan nan nan nan nan nan nan nan nan nan nan nan nan nan nan nan nan nan nan nan nan 1 2 2 12 nan nan nan nan
nan nan nan nan nan nan nan nan nan nan 8 8 2 2 nan nan nan nan nan nan nan nan nan nan nan nan nan nan nan nan nan nan nan nan nan nan nan nan nan nan nan nan nan nan nan nan nan nan nan nan nan nan nan nan nan nan nan nan nan nan nan nan nan nan nan nan nan nan nan nan nan nan nan nan nan nan nan nan nan 0 0 nan nan nan nan nan
nan nan nan nan nan nan nan nan nan nan nan nan nan nan 0 nan nan nan nan nan nan nan nan nan nan nan nan nan nan nan nan nan nan nan nan nan nan nan nan nan nan nan nan nan nan nan nan nan nan nan nan nan nan nan nan nan nan nan nan nan nan nan nan nan nan nan nan nan nan nan nan nan nan nan nan nan nan nan nan nan nan nan nan nan nan nan
nan nan nan nan nan nan nan nan nan nan nan nan nan nan nan nan 0 0 nan nan nan nan nan nan nan nan nan nan nan nan nan nan nan nan nan nan nan nan nan nan nan nan nan nan nan nan nan nan nan nan nan nan nan nan nan nan nan nan nan nan nan nan nan nan nan nan nan nan nan nan nan nan nan nan nan nan nan nan nan nan nan nan nan nan nan nan
nan nan nan nan nan nan nan nan nan nan nan nan nan nan nan nan nan nan nan nan nan nan nan nan nan nan nan nan nan nan nan nan 1 1 nan nan nan nan nan nan nan nan nan nan nan nan nan nan nan nan nan nan nan nan nan nan nan nan nan nan nan nan nan nan nan nan nan nan nan nan nan nan nan nan nan nan nan nan nan nan nan nan nan nan nan nan
nan nan nan nan nan nan nan nan nan nan nan nan nan nan nan nan nan nan nan nan nan nan nan nan nan nan nan nan nan nan nan nan nan nan 1 nan nan nan nan nan nan nan nan nan nan nan nan nan nan nan nan nan nan nan nan nan nan nan nan nan nan nan nan nan nan nan nan nan nan nan nan nan nan nan nan nan nan nan nan nan nan nan nan nan nan nan
nan nan nan nan nan nan nan nan nan nan nan nan nan nan nan nan nan nan nan nan nan nan nan nan nan nan nan nan nan nan nan nan nan nan 0 nan nan nan nan nan nan nan nan nan nan nan nan nan nan nan nan nan nan nan nan nan nan nan nan nan nan nan nan nan nan nan nan nan nan nan nan nan nan nan nan nan nan nan nan nan nan nan nan nan nan nan
nan nan nan nan nan nan nan nan nan nan nan nan nan nan nan nan nan nan nan nan nan nan nan nan nan nan nan nan nan nan nan nan nan nan nan nan nan nan nan nan nan nan nan nan nan nan nan nan nan nan nan nan nan nan nan nan nan nan nan nan nan nan nan nan nan nan nan nan nan nan nan nan nan nan nan nan nan nan nan nan nan nan nan nan nan nan
nan nan nan nan nan nan nan nan nan nan nan nan nan nan nan nan nan nan nan nan nan nan nan nan nan nan 0 0 nan nan nan nan nan nan nan nan nan nan nan nan nan nan nan nan nan nan nan nan nan nan nan nan nan nan nan nan nan nan nan nan nan nan nan nan nan nan nan nan nan nan nan nan nan nan nan nan nan nan nan nan nan nan nan nan nan nan
nan nan nan nan nan nan nan nan nan nan nan nan nan nan nan nan nan nan nan nan nan nan nan nan nan nan nan nan 0 0 nan nan nan nan nan nan nan nan nan nan nan nan nan nan nan nan nan nan nan nan nan nan nan nan nan nan nan nan nan nan nan nan nan nan nan nan nan nan nan nan nan nan nan nan nan nan nan nan nan nan nan nan nan nan nan nan
nan nan nan nan nan nan nan nan nan nan nan nan nan nan nan nan nan nan nan nan nan nan nan nan nan nan nan nan nan nan nan nan nan nan nan nan nan nan nan nan nan nan nan nan nan nan nan nan nan nan nan nan nan nan nan nan nan nan nan nan nan nan nan nan nan nan nan nan nan nan nan nan nan nan nan nan nan nan nan nan nan nan nan nan nan nan
nan nan nan nan nan nan nan nan nan nan nan nan nan nan nan nan nan nan nan nan nan nan nan nan nan nan nan nan nan nan nan nan nan nan nan nan nan nan nan nan nan nan nan nan nan nan nan nan nan nan nan nan nan nan nan nan nan nan nan nan nan nan nan nan nan nan nan nan nan nan nan nan nan nan nan nan nan nan nan nan nan nan nan nan nan nan
nan nan nan nan nan nan nan nan nan nan nan nan nan nan nan nan nan nan nan nan nan nan nan nan nan nan nan nan nan nan nan nan nan nan nan nan nan nan nan nan nan nan nan nan nan nan nan nan nan nan nan nan nan nan nan nan nan nan nan nan nan nan nan nan nan nan nan nan nan nan nan nan nan nan nan nan nan nan nan nan nan nan nan nan nan nan
nan nan nan nan nan nan nan nan nan nan nan nan nan nan nan nan nan nan nan nan nan nan nan nan nan nan nan nan nan nan nan nan nan nan nan nan nan nan nan nan nan nan nan nan nan nan nan nan nan nan nan nan nan nan nan nan nan nan nan nan nan nan nan nan nan nan nan nan nan nan nan nan nan nan nan nan nan nan nan nan nan 0 0 0 0 nan
nan nan nan nan nan nan nan nan nan nan nan nan nan nan nan nan nan nan nan nan nan nan nan nan nan nan nan nan nan nan nan nan nan nan nan nan nan nan nan nan nan nan nan nan nan nan nan nan nan nan nan nan nan nan nan nan nan nan nan nan nan nan nan nan nan nan nan nan nan nan nan nan nan nan nan nan nan nan nan nan nan nan nan nan nan nan
nan nan nan nan nan nan nan nan nan nan nan nan nan nan nan nan nan nan nan nan nan nan nan nan nan nan nan nan nan nan nan nan nan nan nan nan 1 1 nan nan nan nan nan nan nan nan nan nan nan nan nan nan nan nan nan nan nan nan nan nan nan nan nan nan nan nan nan nan nan nan nan nan nan nan nan nan nan nan nan nan nan nan nan nan nan nan
nan nan nan nan nan nan nan nan nan nan nan nan nan nan nan nan nan nan nan nan nan nan nan nan nan nan nan nan nan nan nan nan nan nan nan nan nan nan 0 nan nan nan nan nan nan nan nan nan nan nan nan nan nan nan nan nan nan nan nan nan nan nan nan nan nan nan nan nan nan nan nan nan nan nan nan nan nan nan nan nan nan nan nan nan nan nan
nan nan nan nan nan nan nan nan nan nan nan nan nan nan nan nan nan nan nan nan nan nan nan nan nan nan nan nan nan nan nan nan nan nan nan nan nan nan nan 0 0 nan nan nan nan nan nan nan nan nan nan nan nan nan nan nan nan nan nan nan nan nan nan nan nan nan nan nan nan nan nan nan nan nan nan nan nan nan nan nan nan nan nan nan nan nan
nan nan nan nan nan nan nan nan nan nan nan nan nan nan nan nan nan nan nan nan nan nan nan nan nan nan nan nan nan nan nan nan nan nan nan nan nan nan nan nan nan nan nan 0 0 nan nan nan nan nan nan nan nan nan nan nan nan nan nan nan nan nan nan nan nan nan nan nan nan nan nan nan nan nan nan nan nan nan nan nan nan nan nan nan nan nan
nan nan nan nan nan nan nan nan nan nan nan nan nan nan nan nan nan nan nan nan nan nan nan nan nan nan nan nan nan nan nan nan nan nan nan nan nan nan nan nan nan nan nan nan nan nan nan nan nan nan nan nan nan nan nan nan nan nan nan nan nan nan nan nan nan nan nan nan nan nan nan nan nan nan nan nan nan nan nan nan nan nan nan nan nan nan
nan nan nan nan nan nan nan nan nan nan nan nan nan nan nan nan nan nan nan nan nan nan nan nan nan nan nan nan nan nan nan nan nan nan nan nan nan nan nan nan nan nan nan nan nan nan nan nan nan nan 0 nan nan nan nan nan nan nan nan nan nan nan nan nan nan nan nan nan nan nan nan nan nan nan nan nan nan nan nan nan nan nan nan nan nan nan
nan nan nan nan nan nan nan nan nan nan nan nan nan nan nan nan nan nan nan nan nan nan nan nan nan nan nan nan nan nan nan nan nan nan nan nan nan nan nan nan nan nan nan nan nan nan nan nan nan nan nan 4 nan nan nan nan nan nan nan nan nan nan nan nan nan nan nan nan nan nan nan nan nan nan nan nan nan nan nan nan nan nan nan nan nan nan
CIN
nan nan nan nan nan nan nan nan nan nan nan nan nan nan nan nan nan nan -0 nan nan nan nan nan nan nan -0 -0 -0 -0 -0 -0 -0 -0 -0 -0 -1 -1 -3 -0 -0 -0 -2 -4 -4 -3 -2 -1 -1 -1 -0 -0 -0 -0 -0 -0 -0 -0 -0 -0 -0 -0 -0 -0 -0 -0 -0 -0 -0 -0 -0 -0 -0 -0 -0 -0 -0 -0 -0 -0 -0 -0 -0 -0 -0 -0
-0 nan nan nan nan nan -0 nan nan nan nan nan nan nan nan nan nan nan nan -0 -0 nan nan nan nan nan nan -0 -0 -0 -0 -0 -0 -0 -0 -0 nan nan -4 nan nan -0 -3 -3 -3 -4 -3 -2 -2 -2 -0 -0 -0 -0 -0 -0 -0 -0 -0 -0 -0 -0 -0 -0 -0 -0 -0 -0 -0 -0 -0 -0 -0 -0 -0 -0 -0 -0 -0 -0 -0 -0 -0 -0 -0 -0
nan nan nan nan nan nan nan nan nan nan nan nan nan nan nan nan nan nan nan nan nan nan nan nan nan -0 nan -0 -0 -0 -0 -0 -0 -0 -0 -0 nan nan nan nan nan -0 -0 -3 -3 -4 -4 -2 -2 -2 -0 -0 -1 -1 -1 -0 -0 -0 -0 -0 -0 -0 -0 -0 -0 -0 -0 -0 -0 -0 -0 -0 -0 -0 -0 -0 -0 -0 -0 -0 -0 -0 -0 -0 -0 -0
nan nan nan -0 -0 nan nan nan nan nan nan -0 -0 -0 nan nan nan nan nan nan nan nan nan -0 -0 -0 -0 -0 -0 -0 -0 -0 -0 -0 -0 -0 -0 -0 nan nan nan -0 -0 -2 -2 -3 -3 -2 -2 -2 -0 -1 -2 -2 -0 -0 -0 -0 -0 -1 -1 -1 -1 -0 -0 -0 -0 -0 -0 -0 -1 -1 -1 -1 -0 -0 -0 -0 -0 -0 -0 -0 -0 -0 -0 -0
nan nan nan nan nan nan nan nan nan nan -0 -0 nan nan nan nan nan nan -0 nan nan nan nan nan nan nan -0 -0 -0 -0 -0 -0 -0 -0 -0 -0 -0 -0 -0 -7 -7 -0 -0 -1 -1 -2 -3 -2 -2 -1 -0 -0 -2 -2 -0 nan nan nan -2 -2 -2 -0 -2 -1 -1 -0 -0 -0 -1 -1 -1 -1 -0 -0 -0 -0 -0 -0 -0 -0 -0 -0 -0 -0 -0 -0
nan nan nan nan nan -0 nan nan nan nan -0 nan nan nan nan nan nan nan nan nan nan nan nan nan nan nan -0 -0 -0 -0 -0 -0 -0 -0 -0 -0 -0 -0 -0 nan nan -0 -0 -1 -1 -1 -0 -1 -1 -1 -0 -0 -0 -0 -0 nan nan nan -2 -2 -2 -0 -0 -0 -0 -0 -3 -2 -1 -1 -1 -0 -0 -0 -0 -0 -0 -0 -0 -0 -0 -0 -0 -0 -0 -0
nan nan nan nan nan nan nan nan nan nan nan nan nan nan nan nan nan nan nan nan nan nan nan nan nan nan nan nan -0 -0 -0 -0 -0 -0 -0 -0 -0 -0 -0 -0 -0 -0 -0 -0 -0 -1 -0 -0 -0 -0 -0 -0 -0 -0 nan nan nan nan -2 -2 -2 -1 -1 -0 -0 -0 -0 -0 -0 -0 -0 -0 -0 -0 -0 -0 -0 -0 -0 -0 -0 -0 -0 -0 -0 -0
nan nan nan nan nan nan -0 -0 nan nan nan nan nan nan nan nan nan nan nan nan nan nan nan nan nan nan nan nan nan nan nan nan nan nan -0 -0 -0 -0 -0 -0 -0 -0 -0 -3 -3 -2 -0 -0 -0 -0 -0 -0 -0 -0 -0 nan nan nan -4 -4 -4 -3 -1 -0 -0 -0 -0 -0 -0 -0 -0 -0 -0 -0 -5 -4 -2 -2 -1 -0 -0 -0 -0 -0 -0 -0
nan nan nan nan nan nan nan nan -0 -0 nan nan nan nan nan nan nan nan nan nan nan nan nan nan nan nan nan nan nan nan -0 -0 nan nan nan nan nan nan -0 -0 -0 -0 -0 -4 -4 -0 -0 -0 -0 -0 -0 -0 -0 -0 nan nan nan nan nan -6 -6 -4 -3 -0 -0 -4 nan nan nan nan nan nan nan nan nan nan -13 -13 -7 -1 -1 -0 -0 -0 -0 -0
nan nan nan nan nan nan nan nan nan nan nan nan nan nan nan nan nan nan nan nan nan nan nan nan nan nan nan nan nan nan nan nan -0 -0 -0 nan -0 -0 -0 -0 -0 -0 -0 -4 -4 -0 -0 -0 -0 -0 -0 -0 nan nan nan nan nan nan nan -7 -7 -5 -5 -6 -6 -6 nan nan nan nan nan nan nan nan nan nan nan nan nan nan nan nan -3 -0 -0 -0
nan nan nan nan nan nan nan nan -0 -0 nan nan nan nan nan nan nan nan nan nan nan nan nan nan nan nan nan nan nan nan nan nan nan nan nan nan -0 -0 nan nan nan -0 -0 -11 -11 -0 -1 -1 -1 -0 -0 nan nan nan nan nan nan nan nan nan nan -6 nan -0 -0 -6 nan nan nan nan nan nan nan nan nan nan nan nan nan nan nan nan nan nan nan nan
nan nan nan nan nan nan nan nan nan nan nan nan nan nan nan nan nan nan nan nan nan nan nan nan nan nan nan nan nan nan nan nan nan nan nan nan nan nan nan -0 -0 nan -27 -10 -10 -29 nan nan nan nan nan nan nan nan nan nan nan nan nan nan nan nan -6 nan nan nan nan nan nan nan nan nan nan nan nan nan nan nan nan nan nan nan nan nan nan nan
nan nan nan nan nan nan nan nan nan nan nan nan nan nan nan nan nan nan nan nan nan nan nan nan nan nan nan nan nan nan nan nan nan nan nan nan nan nan nan nan nan nan nan nan nan nan nan nan nan nan nan nan nan nan nan nan nan nan nan nan nan nan nan nan nan nan nan nan nan nan nan nan nan nan nan nan nan nan nan nan nan nan nan nan nan nan
nan nan nan nan nan nan nan nan nan nan nan nan nan nan nan nan nan nan nan nan nan nan nan nan nan nan nan nan nan nan nan nan nan nan nan nan nan nan nan nan nan nan nan nan nan nan nan nan nan nan nan nan nan nan nan nan nan nan nan nan nan nan nan nan nan nan nan nan nan nan nan nan nan nan nan nan nan nan nan nan nan nan nan nan nan nan
nan nan nan nan nan nan nan nan nan nan nan nan nan nan nan nan nan nan nan nan nan nan nan nan nan nan nan nan nan nan nan nan nan nan nan nan nan nan nan nan nan nan nan nan nan nan nan nan nan nan nan nan nan nan nan nan nan nan nan nan nan -4 -4 nan nan nan nan nan nan nan nan nan nan nan nan nan nan nan nan nan nan nan nan nan nan nan
nan nan nan nan nan nan nan nan nan nan nan nan nan nan nan nan nan nan nan nan nan nan nan nan nan nan nan nan nan nan nan nan nan nan nan nan nan nan nan nan nan nan nan nan nan nan nan nan nan nan nan nan nan nan nan -0 -0 nan nan nan nan -3 -4 -5 -5 nan nan nan nan nan nan nan nan nan nan nan nan nan nan nan nan nan nan nan nan nan
nan nan nan nan nan nan nan nan nan nan nan nan nan nan nan nan nan nan nan nan nan nan nan nan nan nan nan nan nan nan nan nan nan nan nan nan nan nan nan nan nan nan nan nan nan nan nan nan nan nan nan -0 nan nan nan -1 -1 -0 -0 -1 -1 -3 -3 -0 -0 nan nan nan nan nan nan nan nan nan nan nan nan nan nan nan nan nan nan nan nan nan
nan nan nan nan nan nan nan nan nan nan nan nan nan nan nan nan nan nan nan nan nan nan nan nan nan nan nan nan nan nan nan nan nan nan nan nan nan nan nan nan nan nan nan nan nan nan nan nan nan nan nan -0 -0 -0 -1 -0 -0 -0 -0 -1 -1 nan nan nan nan nan nan nan nan nan nan nan nan nan nan nan nan nan nan nan nan nan nan nan nan nan
nan nan nan nan nan nan nan nan nan nan nan nan nan nan nan nan nan nan nan nan nan nan nan nan nan nan nan nan nan nan nan nan nan nan nan nan nan nan nan nan nan nan nan nan nan nan nan nan nan -0 nan -2 -0 -0 -0 -0 -0 -0 -0 -0 -0 nan nan nan nan nan nan nan nan nan nan nan nan nan nan nan nan nan nan nan nan nan nan nan nan nan
nan nan nan nan nan nan nan nan nan nan nan nan nan nan nan nan nan nan nan nan nan nan nan nan nan nan nan nan nan nan nan nan nan nan nan nan nan nan nan nan nan nan nan nan nan nan nan nan nan -0 -0 nan -0 -0 -0 -0 -0 -0 -0 -0 -0 -0 -0 -0 -0 -0 nan nan nan nan nan nan nan nan nan nan nan nan nan nan nan nan nan nan nan nan
nan nan nan nan nan nan nan nan nan nan nan nan nan nan nan nan nan nan nan nan nan nan nan nan nan nan nan nan nan nan nan nan nan nan nan nan nan nan nan nan nan nan nan nan nan nan nan nan nan nan nan nan -2 -2 -0 -0 -0 -0 -0 -0 -0 -0 -0 -0 -0 -0 -0 -0 -0 -0 nan nan nan nan nan nan nan nan nan nan nan nan nan nan nan nan
nan nan nan nan nan nan nan nan nan nan nan nan nan nan nan nan nan nan nan nan nan nan nan nan nan nan nan nan nan nan nan nan nan nan nan nan nan nan nan nan nan nan nan nan nan nan nan nan nan nan nan -0 nan nan -1 -1 -1 -0 -0 -0 -0 -0 -0 -0 -0 -0 -0 -0 -0 -0 -1 nan nan nan nan nan nan nan nan nan nan nan nan nan nan nan
nan nan nan nan nan nan nan nan nan nan nan nan nan nan nan nan nan nan nan nan nan nan nan nan nan nan nan nan nan nan nan nan nan nan nan nan nan nan nan nan nan nan nan nan nan nan nan nan nan nan -0 -0 -0 -0 nan -0 -0 -1 -1 -0 -0 -0 -1 -0 -0 -0 -0 -0 -0 -0 -0 -0 -1 -1 -3 nan nan nan nan nan nan nan nan nan nan nan
nan nan nan nan nan nan nan nan nan nan nan nan nan nan nan nan nan nan nan nan nan nan nan nan nan nan nan nan nan nan nan nan nan nan nan nan nan nan nan nan nan nan nan nan nan nan nan nan nan nan -0 -0 -0 -0 nan -0 -0 nan -0 -0 -0 -0 -0 -0 -0 -0 -0 -0 -0 -0 -0 -0 -0 -0 -0 -0 nan nan nan nan nan nan nan nan nan nan
nan nan nan nan nan nan nan nan nan nan nan nan nan nan nan nan nan nan nan nan nan nan nan nan nan nan nan nan nan nan nan nan nan nan nan nan nan nan nan nan nan nan nan nan nan nan nan nan nan nan nan nan nan nan nan -0 -0 nan nan -0 -0 -0 -0 -0 -0 -0 -0 -0 -0 -0 -0 -0 -0 -0 -0 -0 -0 -0 -0 nan nan nan nan nan nan nan
nan nan nan nan nan nan nan -0 -0 -0 nan nan nan nan nan nan nan nan nan nan nan nan nan nan nan nan nan nan nan nan nan nan nan nan nan nan nan nan nan nan nan nan nan nan nan nan nan nan nan nan nan nan nan nan nan nan nan nan nan nan nan nan -0 -0 -0 -0 -0 -0 -0 -0 -0 -0 -0 -0 -0 -0 -0 -0 -0 -0 -0 -1 nan nan nan nan
-0 -0 -0 -0 -0 -0 -0 -0 -0 -0 -0 -0 nan nan nan nan nan nan nan nan nan nan nan nan nan nan nan nan nan nan nan nan nan nan nan nan nan nan nan nan nan nan nan nan nan nan nan nan nan nan nan nan nan nan nan nan nan nan nan nan nan nan -0 -0 -0 -0 -0 -0 -0 -0 -0 -0 -0 -0 -0 -0 -0 -0 -0 -0 -0 -0 -1 -0 -0 nan
-0 -0 -0 -0 -0 -0 -0 -0 -0 -0 -0 -0 -0 -0 nan nan nan nan nan nan nan nan nan nan nan nan nan nan nan nan nan nan nan nan nan nan nan nan nan nan nan nan nan nan nan nan nan nan nan nan nan nan nan nan nan nan nan nan nan nan nan nan nan nan nan -0 -0 -0 -0 -0 -0 -0 -0 -0 -0 -0 -0 -0 -0 -0 -0 -0 -1 nan nan nan
-0 -0 -0 -0 -0 -0 -0 -0 -0 -0 -0 -0 -0 -0 nan nan nan nan nan nan nan nan nan nan nan nan nan nan nan nan nan nan nan nan nan nan nan nan nan nan nan nan nan nan nan nan nan nan nan nan nan nan nan nan nan nan nan nan nan nan nan nan nan nan nan nan nan nan nan nan nan nan nan nan -0 -0 -0 -0 -0 -0 -0 -0 -2 nan nan nan
nan -0 -1 -0 -0 -0 -0 -1 -0 -0 -0 -0 -0 -0 nan nan nan nan nan nan nan nan nan nan nan nan nan nan nan nan nan nan nan nan nan nan nan nan nan nan nan nan nan nan nan nan nan nan nan nan nan nan nan nan nan nan nan nan nan nan nan nan nan nan nan nan nan nan nan nan nan nan nan nan nan nan nan nan -0 -0 -0 -1 nan nan nan nan
nan nan nan nan nan nan nan nan nan nan -0 -0 -0 -0 nan nan nan nan nan nan nan nan nan nan nan nan nan nan nan nan nan nan nan nan nan nan nan nan nan nan nan nan nan nan nan nan nan nan nan nan nan nan nan nan nan nan nan nan nan nan nan nan nan nan nan nan nan nan nan nan nan nan nan nan nan nan nan nan nan -0 -0 nan nan nan nan nan
nan nan nan nan nan nan nan nan nan nan nan nan nan nan -0 nan nan nan nan nan nan nan nan nan nan nan nan nan nan nan nan nan nan nan nan nan nan nan nan nan nan nan nan nan nan nan nan nan nan nan nan nan nan nan nan nan nan nan nan nan nan nan nan nan nan nan nan nan nan nan nan nan nan nan nan nan nan nan nan nan nan nan nan nan nan nan
nan nan nan nan nan nan nan nan nan nan nan nan nan nan nan nan -0 -0 nan nan nan nan nan nan nan nan nan nan nan nan nan nan nan nan nan nan nan nan nan nan nan nan nan nan nan nan nan nan nan nan nan nan nan nan nan nan nan nan nan nan nan nan nan nan nan nan nan nan nan nan nan nan nan nan nan nan nan nan nan nan nan nan nan nan nan nan
nan nan nan nan nan nan nan nan nan nan nan nan nan nan nan nan nan nan nan nan nan nan nan nan nan nan nan nan nan nan nan nan -0 -0 nan nan nan nan nan nan nan nan nan nan nan nan nan nan nan nan nan nan nan nan nan nan nan nan nan nan nan nan nan nan nan nan nan nan nan nan nan nan nan nan nan nan nan nan nan nan nan nan nan nan nan nan
nan nan nan nan nan nan nan nan nan nan nan nan nan nan nan nan nan nan nan nan nan nan nan nan nan nan nan nan nan nan nan nan nan nan -0 nan nan nan nan nan nan nan nan nan nan nan nan nan nan nan nan nan nan nan nan nan nan nan nan nan nan nan nan nan nan nan nan nan nan nan nan nan nan nan nan nan nan nan nan nan nan nan nan nan nan nan
nan nan nan nan nan nan nan nan nan nan nan nan nan nan nan nan nan nan nan nan nan nan nan nan nan nan nan nan nan nan nan nan nan nan -2 nan nan nan nan nan nan nan nan nan nan nan nan nan nan nan nan nan nan nan nan nan nan nan nan nan nan nan nan nan nan nan nan nan nan nan nan nan nan nan nan nan nan nan nan nan nan nan nan nan nan nan
nan nan nan nan nan nan nan nan nan nan nan nan nan nan nan nan nan nan nan nan nan nan nan nan nan nan nan nan nan nan nan nan nan nan nan nan nan nan nan nan nan nan nan nan nan nan nan nan nan nan nan nan nan nan nan nan nan nan nan nan nan nan nan nan nan nan nan nan nan nan nan nan nan nan nan nan nan nan nan nan nan nan nan nan nan nan
nan nan nan nan nan nan nan nan nan nan nan nan nan nan nan nan nan nan nan nan nan nan nan nan nan nan -0 -0 nan nan nan nan nan nan nan nan nan nan nan nan nan nan nan nan nan nan nan nan nan nan nan nan nan nan nan nan nan nan nan nan nan nan nan nan nan nan nan nan nan nan nan nan nan nan nan nan nan nan nan nan nan nan nan nan nan nan
nan nan nan nan nan nan nan nan nan nan nan nan nan nan nan nan nan nan nan nan nan nan nan nan nan nan nan nan -0 -0 nan nan nan nan nan nan nan nan nan nan nan nan nan nan nan nan nan nan nan nan nan nan nan nan nan nan nan nan nan nan nan nan nan nan nan nan nan nan nan nan nan nan nan nan nan nan nan nan nan nan nan nan nan nan nan nan
nan nan nan nan nan nan nan nan nan nan nan nan nan nan nan nan nan nan nan nan nan nan nan nan nan nan nan nan nan nan nan nan nan nan nan nan nan nan nan nan nan nan nan nan nan nan nan nan nan nan nan nan nan nan nan nan nan nan nan nan nan nan nan nan nan nan nan nan nan nan nan nan nan nan nan nan nan nan nan nan nan nan nan nan nan nan
nan nan nan nan nan nan nan nan nan nan nan nan nan nan nan nan nan nan nan nan nan nan nan nan nan nan nan nan nan nan nan nan nan nan nan nan nan nan nan nan nan nan nan nan nan nan nan nan nan nan nan nan nan nan nan nan nan nan nan nan nan nan nan nan nan nan nan nan nan nan nan nan nan nan nan nan nan nan nan nan nan nan nan nan nan nan
nan nan nan nan nan nan nan nan nan nan nan nan nan nan nan nan nan nan nan nan nan nan nan nan nan nan nan nan nan nan nan nan nan nan nan nan nan nan nan nan nan nan nan nan nan nan nan nan nan nan nan nan nan nan nan nan nan nan nan nan nan nan nan nan nan nan nan nan nan nan nan nan nan nan nan nan nan nan nan nan nan nan nan nan nan nan
nan nan nan nan nan nan nan nan nan nan nan nan nan nan nan nan nan nan nan nan nan nan nan nan nan nan nan nan nan nan nan nan nan nan nan nan nan nan nan nan nan nan nan nan nan nan nan nan nan nan nan nan nan nan nan nan nan nan nan nan nan nan nan nan nan nan nan nan nan nan nan nan nan nan nan nan nan nan nan nan nan -0 -0 -0 -0 nan
nan nan nan nan nan nan nan nan nan nan nan nan nan nan nan nan nan nan nan nan nan nan nan nan nan nan nan nan nan nan nan nan nan nan nan nan nan nan nan nan nan nan nan nan nan nan nan nan nan nan nan nan nan nan nan nan nan nan nan nan nan nan nan nan nan nan nan nan nan nan nan nan nan nan nan nan nan nan nan nan nan nan nan nan nan nan
nan nan nan nan nan nan nan nan nan nan nan nan nan nan nan nan nan nan nan nan nan nan nan nan nan nan nan nan nan nan nan nan nan nan nan nan -0 -0 nan nan nan nan nan nan nan nan nan nan nan nan nan nan nan nan nan nan nan nan nan nan nan nan nan nan nan nan nan nan nan nan nan nan nan nan nan nan nan nan nan nan nan nan nan nan nan nan
nan nan nan nan nan nan nan nan nan nan nan nan nan nan nan nan nan nan nan nan nan nan nan nan nan nan nan nan nan nan nan nan nan nan nan nan nan nan -0 nan nan nan nan nan nan nan nan nan nan nan nan nan nan nan nan nan nan nan nan nan nan nan nan nan nan nan nan nan nan nan nan nan nan nan nan nan nan nan nan nan nan nan nan nan nan nan
nan nan nan nan nan nan nan nan nan nan nan nan nan nan nan nan nan nan nan nan nan nan nan nan nan nan nan nan nan nan nan nan nan nan nan nan nan nan nan -1 -1 nan nan nan nan nan nan nan nan nan nan nan nan nan nan nan nan nan nan nan nan nan nan nan nan nan nan nan nan nan nan nan nan nan nan nan nan nan nan nan nan nan nan nan nan nan
nan nan nan nan nan nan nan nan nan nan nan nan nan nan nan nan nan nan nan nan nan nan nan nan nan nan nan nan nan nan nan nan nan nan nan nan nan nan nan nan nan nan nan -0 -0 nan nan nan nan nan nan nan nan nan nan nan nan nan nan nan nan nan nan nan nan nan nan nan nan nan nan nan nan nan nan nan nan nan nan nan nan nan nan nan nan nan
nan nan nan nan nan nan nan nan nan nan nan nan nan nan nan nan nan nan nan nan nan nan nan nan nan nan nan nan nan nan nan nan nan nan nan nan nan nan nan nan nan nan nan nan nan nan nan nan nan nan nan nan nan nan nan nan nan nan nan nan nan nan nan nan nan nan nan nan nan nan nan nan nan nan nan nan nan nan nan nan nan nan nan nan nan nan
nan nan nan nan nan nan nan nan nan nan nan nan nan nan nan nan nan nan nan nan nan nan nan nan nan nan nan nan nan nan nan nan nan nan nan nan nan nan nan nan nan nan nan nan nan nan nan nan nan nan -0 nan nan nan nan nan nan nan nan nan nan nan nan nan nan nan nan nan nan nan nan nan nan nan nan nan nan nan nan nan nan nan nan nan nan nan
nan nan nan nan nan nan nan nan nan nan nan nan nan nan nan nan nan nan nan nan nan nan nan nan nan nan nan nan nan nan nan nan nan nan nan nan nan nan nan nan nan nan nan nan nan nan nan nan nan nan nan -0 nan nan nan nan nan nan nan nan nan nan nan nan nan nan nan nan nan nan nan nan nan nan nan nan nan nan nan nan nan nan nan nan nan nan
Wind_Speed
2 2 2 1 1 1 1 2 2 2 2 2 2 2 3 3 4 4 6 6 6 5 4 4 4 4 5 6 7 7 7 7 6 6 5 5 4 5 5 6 5 5 4 5 5 5 4 5 5 5 4 3 2 2 2 3 4 4 5 6 6 8 9 10 10 10 11 12 14 15 15 16 17 17 17 17 16 16 15 14 13 12 11 10 10 9
2 2 2 1 2 2 1 1 1 2 3 3 2 2 2 3 3 3 4 5 5 4 4 3 3 3 4 5 6 7 7 7 6 6 6 5 5 5 5 6 6 5 4 4 5 5 5 6 6 5 4 3 2 2 3 4 4 5 6 6 7 9 9 10 10 10 10 11 12 13 13 14 14 14 15 15 15 15 14 13 12 11 10 10 9 9
3 3 2 1 1 2 2 1 1 2 3 3 2 2 2 3 3 3 3 3 3 3 3 3 3 3 3 4 6 7 8 7 7 6 6 6 5 5 5 6 7 6 4 4 5 6 6 6 6 5 5 4 3 3 4 5 5 6 7 7 8 8 9 9 9 9 9 10 10 11 12 12 12 12 13 14 14 13 13 12 11 10 9 9 9 8
4 4 3 2 1 1 2 2 1 2 3 3 3 2 3 3 2 2 2 2 2 2 2 2 2 2 2 3 5 7 8 8 7 7 6 6 6 5 5 6 6 6 5 4 5 6 6 6 6 6 5 5 4 5 5 6 6 7 8 8 8 8 8 8 8 9 9 9 9 9 10 10 11 12 12 12 12 12 11 11 10 9 9 9 8 8
4 4 3 2 1 1 1 2 2 2 3 3 3 3 3 2 1 1 1 1 2 2 2 2 2 2 2 3 5 7 9 8 8 7 7 6 6 6 5 6 6 6 5 4 6 7 7 7 6 6 6 5 5 5 6 6 7 8 8 8 8 8 8 8 8 8 8 8 8 8 9 9 10 11 11 11 11 11 10 10 10 10 10 9 9 9
4 3 2 2 2 1 1 1 2 2 3 2 2 2 2 1 1 1 0 1 1 2 1 1 1 1 2 3 5 7 8 8 8 7 7 7 6 6 6 6 6 6 6 5 6 7 8 7 7 7 6 6 6 6 7 7 8 8 8 8 8 7 7 8 8 8 8 8 8 8 9 9 10 10 10 11 10 10 10 10 10 10 10 10 10 10
3 2 2 1 1 1 1 1 2 2 2 2 2 1 1 0 0 1 1 1 1 1 0 0 1 1 2 3 5 7 7 7 7 7 7 7 7 7 7 6 6 6 6 6 7 8 9 8 8 7 7 7 7 7 7 8 8 8 8 8 8 8 8 8 8 8 8 9 9 9 9 9 9 10 10 10 10 10 9 9 10 10 10 10 10 10
4 2 1 1 1 1 1 1 2 2 2 2 2 2 1 0 0 1 1 1 1 1 1 0 1 2 2 3 4 5 5 5 5 5 6 6 7 7 7 7 7 6 7 7 8 9 10 10 9 8 8 8 8 8 8 8 8 8 8 8 8 8 8 9 9 9 9 9 9 9 9 9 9 10 10 10 10 10 9 9 9 9 9 9 9 9
6 4 2 2 2 2 2 1 2 2 2 2 2 2 2 1 1 1 1 1 1 1 1 1 2 2 3 3 3 4 5 4 3 3 4 4 5 6 7 7 7 7 8 8 9 10 11 11 10 9 9 8 8 8 9 9 9 9 8 8 8 9 9 9 10 10 10 10 10 10 10 10 10 10 11 11 11 10 10 9 9 9 9 8 8 8
6 5 3 2 1 2 2 2 2 2 2 2 2 2 2 2 2 2 1 1 1 1 1 2 3 3 3 3 3 3 4 4 4 4 5 5 5 6 6 6 6 6 8 9 10 12 12 12 11 10 10 9 9 9 9 9 9 9 9 9 9 9 9 10 10 10 10 10 10 10 10 10 11 11 11 11 11 11 10 10 10 9 9 8 8 8
5 4 4 2 1 1 1 2 2 2 2 2 2 1 0 1 2 3 3 2 1 1 1 3 3 3 3 2 3 3 3 3 3 4 5 6 7 7 7 6 6 6 7 8 10 12 13 12 12 11 10 10 9 9 9 9 9 9 9 9 9 9 10 10 10 10 10 10 10 10 10 10 10 11 11 11 11 11 11 11 10 10 10 9 9 9
4 3 3 2 2 1 1 2 2 2 2 2 2 1 1 1 2 2 3 2 2 1 2 2 2 2 2 1 2 3 3 2 2 3 3 4 5 5 6 5 5 4 5 7 9 11 12 12 12 11 10 10 9 9 8 8 8 9 9 9 9 9 10 10 10 10 10 10 9 9 9 9 9 10 10 10 10 10 10 10 10 10 10 10 9 9
3 3 3 2 2 2 2 2 2 1 1 1 2 2 2 2 2 2 2 2 2 2 2 2 2 1 1 1 2 2 2 2 2 2 2 3 3 4 4 4 3 1 1 4 5 7 10 11 11 10 10 9 9 9 9 8 9 9 9 9 9 9 10 10 10 10 9 9 9 8 8 8 8 9 9 9 9 9 9 9 9 10 10 10 9 9
3 3 3 2 2 2 2 3 3 3 2 2 2 2 2 2 2 2 2 2 2 2 2 2 1 0 1 1 1 2 2 1 2 2 2 2 3 3 3 3 3 2 2 3 3 4 6 7 7 7 9 9 8 8 8 9 9 9 9 9 9 9 9 9 9 9 9 8 8 8 7 7 8 8 8 8 8 8 8 9 9 9 9 9 9 9
4 4 3 3 3 3 3 3 3 3 3 2 1 1 1 1 2 2 2 3 2 2 2 2 2 0 1 1 1 1 1 1 1 1 2 2 3 3 3 3 2 3 3 3 3 3 4 4 4 5 6 6 7 7 7 8 9 9 9 9 9 9 9 9 9 9 8 8 8 7 7 7 6 6 7 7 7 7 7 8 8 8 9 9 9 9
5 4 4 4 4 3 3 3 3 3 3 2 2 2 2 2 2 1 3 3 3 2 2 2 2 1 0 1 1 1 1 2 1 1 1 2 2 3 3 2 2 3 3 3 3 3 3 3 3 4 4 5 6 7 7 8 8 9 9 9 9 9 9 9 9 8 8 8 7 7 6 6 5 5 5 5 6 6 6 7 7 7 7 7 8 8
5 5 5 4 4 4 3 3 3 3 3 3 3 2 3 3 2 1 2 2 2 2 2 2 2 1 0 1 1 1 2 2 1 1 1 1 2 3 3 2 2 2 2 3 3 3 3 3 3 3 3 5 6 7 7 7 8 8 8 8 8 8 8 8 8 8 8 7 7 6 5 5 5 4 4 4 5 5 5 5 5 5 5 6 6 6
4 4 4 5 4 4 4 3 3 3 3 3 3 2 1 1 0 1 2 2 2 2 2 2 2 2 2 1 1 1 2 1 1 1 1 1 1 2 3 2 1 2 2 2 2 2 3 3 2 2 2 5 6 6 6 7 7 8 8 8 8 8 7 7 7 7 7 6 6 5 5 4 4 4 4 4 4 4 4 4 4 3 3 4 4 4
4 4 4 4 4 4 4 3 3 4 4 4 4 3 1 1 1 1 2 2 2 2 2 2 2 1 2 1 1 0 1 1 1 1 1 1 1 2 3 2 1 2 2 2 2 2 2 2 3 3 1 4 6 6 6 6 6 7 7 7 7 7 6 6 6 6 6 5 5 5 5 4 4 4 4 4 3 3 3 2 2 2 2 2 2 3
4 4 3 3 4 4 4 4 4 5 5 5 4 4 3 2 2 1 1 1 1 2 2 2 2 2 2 1 1 0 1 1 1 1 1 1 1 2 3 2 2 2 2 2 2 2 2 2 2 2 2 3 4 5 5 5 5 6 6 6 6 6 5 5 5 5 5 5 5 5 5 5 5 5 4 4 3 3 3 2 1 1 0 1 1 2
5 4 3 4 4 5 4 4 4 5 6 6 5 4 4 3 2 2 2 2 2 2 2 2 2 2 2 2 1 0 1 1 1 2 1 1 1 1 2 2 1 1 2 1 1 2 2 2 2 3 4 3 3 2 3 4 4 5 5 5 5 5 5 5 5 5 5 6 6 6 6 6 6 5 5 5 4 4 3 3 2 2 1 1 1 2
6 5 4 4 4 4 5 4 5 6 7 7 6 5 4 4 3 3 3 2 2 2 2 2 2 2 2 2 1 0 1 0 1 1 2 1 1 1 2 2 1 1 1 1 1 2 2 2 2 3 5 6 5 3 1 1 2 3 3 4 4 4 5 5 6 6 7 7 7 7 7 7 7 7 6 6 6 5 5 4 4 3 3 2 2 2
5 5 5 4 3 3 4 5 5 5 6 6 5 5 4 4 4 4 4 3 3 3 3 3 3 2 2 2 1 1 1 1 0 1 2 2 0 1 2 2 1 1 1 1 1 2 2 2 2 3 5 7 6 5 4 3 2 1 0 0 1 1 2 3 4 5 7 7 8 8 8 8 8 8 8 7 7 7 6 6 5 5 4 4 3 3
5 5 5 4 3 3 4 4 4 4 3 3 3 3 2 3 3 3 3 3 3 4 3 3 3 3 2 2 1 1 2 1 1 0 1 2 1 0 1 2 1 1 1 1 1 2 2 2 2 3 4 6 7 7 6 6 5 4 4 3 3 3 3 2 2 3 4 5 6 7 8 8 8 8 8 8 8 8 7 7 7 6 6 5 4 3
5 5 5 4 5 5 5 5 5 5 4 4 3 3 3 4 4 4 4 4 4 4 4 4 3 2 2 1 1 1 2 2 1 0 1 1 1 0 1 1 1 1 1 1 1 2 2 2 2 3 3 5 7 8 8 7 6 6 5 5 5 5 5 4 4 4 4 3 4 4 5 6 7 7 8 9 9 9 8 8 8 7 6 6 5 4
7 7 7 8 9 10 10 9 9 8 7 6 5 4 4 5 5 5 4 4 4 4 4 3 2 1 1 1 1 1 2 2 2 1 1 1 1 0 1 1 1 1 1 1 2 2 2 2 2 2 3 4 6 7 8 8 7 7 6 6 5 5 5 5 5 5 5 5 5 5 4 4 4 5 6 7 8 9 9 9 8 8 7 6 5 4
13 13 13 13 13 13 12 12 11 11 10 9 8 6 5 5 5 5 4 3 3 4 4 3 2 1 1 1 0 1 2 2 2 1 1 1 1 1 1 1 1 1 1 1 2 2 2 2 2 2 2 3 4 5 8 8 8 7 7 6 6 6 5 5 5 5 5 5 5 5 6 6 5 5 5 5 5 7 8 9 9 8 7 5 3 2
16 15 15 14 14 13 13 12 12 12 11 11 11 9 6 5 5 5 4 4 3 3 3 3 2 2 1 1 0 1 1 1 1 1 1 1 1 1 0 1 1 1 1 1 2 2 2 2 1 1 2 2 3 4 6 8 8 7 7 7 6 6 6 6 6 6 6 6 6 6 6 6 6 7 7 7 6 5 6 7 8 8 7 4 2 1
14 15 14 14 13 13 13 12 11 11 12 11 10 8 5 4 4 4 4 4 4 4 3 2 2 2 2 1 0 0 1 1 1 1 1 1 1 1 0 1 1 1 1 2 2 2 2 2 1 1 1 3 3 3 4 6 6 6 7 7 7 7 7 7 7 7 7 7 7 7 7 7 7 7 7 7 8 7 6 5 5 5 4 3 2 2
10 10 10 9 9 9 9 8 8 9 11 10 9 7 4 3 3 3 4 4 4 4 3 3 2 2 2 2 1 1 1 1 1 1 0 1 1 1 0 1 1 1 1 2 2 2 2 2 1 1 1 2 3 3 3 4 4 4 4 6 6 7 8 9 8 8 8 8 8 8 8 7 7 7 7 7 7 7 7 7 5 2 2 3 2 2
7 7 6 6 6 6 6 5 6 7 8 8 7 6 5 4 3 3 3 3 4 4 3 3 2 2 2 2 2 1 1 1 2 1 0 1 1 1 1 1 1 1 1 2 2 2 1 1 2 1 2 2 2 3 3 3 3 3 3 4 4 6 8 9 8 8 8 9 9 9 9 9 8 8 7 7 7 7 7 7 6 3 2 2 2 1
6 5 5 4 4 5 5 5 5 5 6 6 6 5 5 4 4 3 3 3 3 3 3 3 3 2 2 2 2 2 1 1 2 1 1 2 1 1 1 1 1 1 1 1 2 3 2 1 1 2 2 2 2 3 3 3 3 3 3 3 3 4 7 7 7 7 7 8 9 9 9 9 9 8 8 7 7 7 7 7 6 3 1 2 2 2
5 5 4 4 4 4 4 4 4 4 4 4 4 4 4 4 4 4 3 2 2 3 4 4 3 3 2 2 2 1 1 1 2 1 2 2 2 1 1 1 1 1 1 2 2 2 2 1 1 2 2 2 2 2 3 3 3 3 3 3 3 3 5 5 5 5 6 6 7 7 8 9 9 8 8 7 7 7 6 7 6 4 1 1 2 2
6 5 5 5 4 4 4 4 4 4 4 4 3 3 3 3 4 4 3 3 3 3 3 4 4 3 3 2 1 1 0 1 1 0 2 2 2 1 1 1 2 2 2 2 2 2 2 1 0 1 2 3 2 2 2 2 2 2 2 2 2 3 3 4 4 4 4 4 4 5 6 6 7 8 7 7 7 7 6 6 6 6 4 2 2 3
5 5 5 5 4 4 4 4 4 4 4 3 3 3 3 3 3 3 3 3 3 3 3 3 3 3 3 3 2 2 1 1 1 0 2 2 2 2 2 1 2 2 3 2 2 2 2 1 1 1 2 2 3 2 2 1 1 1 1 1 1 1 2 2 3 3 4 4 4 4 4 4 5 5 6 6 7 7 7 7 6 6 6 4 3 3
5 5 4 4 4 4 4 4 4 4 4 3 3 3 3 3 3 3 3 3 3 4 4 3 3 2 2 3 3 3 3 2 1 1 2 2 2 2 2 1 2 2 3 2 2 2 2 1 1 1 1 1 2 3 2 2 2 1 1 1 1 1 1 1 2 2 3 3 4 4 4 4 4 4 5 6 7 7 7 7 6 6 6 6 5 4
5 4 3 3 4 4 4 3 3 3 3 3 2 2 3 3 3 3 3 3 3 4 4 4 4 4 4 3 3 3 3 1 1 2 3 2 2 2 2 2 2 2 3 3 3 2 2 1 1 1 1 1 1 2 3 3 3 3 3 2 1 1 1 1 2 2 2 3 3 3 4 4 4 4 5 6 7 7 7 7 7 6 7 7 6 6
4 4 3 3 3 3 4 3 3 3 3 3 3 3 3 3 3 3 3 3 4 4 4 4 4 5 7 7 6 5 3 3 3 3 4 3 2 3 3 2 1 1 2 3 3 3 3 2 1 1 1 2 2 2 2 2 3 3 3 3 2 1 1 1 1 2 2 3 3 4 4 4 3 4 4 5 5 5 5 5 5 6 7 7 7 7
4 4 3 3 3 3 3 3 3 3 3 3 3 3 3 4 4 4 3 4 4 4 4 4 4 4 6 7 7 7 5 5 4 4 4 3 2 2 3 3 2 1 1 2 2 3 4 3 3 2 1 2 2 2 1 1 2 2 3 3 2 2 1 1 1 2 2 2 3 4 4 4 3 3 3 3 3 4 4 4 4 5 5 4 5 6
4 4 4 4 3 3 3 3 3 3 4 4 4 4 4 4 3 3 3 4 4 4 4 4 4 4 5 5 6 6 6 5 4 4 3 3 2 2 2 3 3 2 1 1 2 2 3 3 3 3 3 2 1 1 2 1 1 2 2 2 2 2 2 2 2 2 1 1 2 3 4 3 3 3 3 3 3 3 2 3 3 3 3 2 2 3
4 4 4 3 3 3 3 3 3 4 4 4 4 3 3 3 3 2 2 3 3 3 3 3 4 4 5 5 5 5 5 5 4 4 3 2 2 1 2 3 3 3 3 2 1 2 2 3 3 3 2 2 1 1 2 2 2 1 1 1 2 3 3 2 2 1 1 1 2 3 4 4 4 4 4 4 3 2 2 2 2 3 2 0 0 0
5 4 4 3 3 3 3 3 4 4 4 4 4 3 2 2 3 3 2 2 2 2 2 2 2 3 4 4 4 4 4 4 4 4 3 2 2 2 2 2 3 3 3 3 2 1 1 2 3 3 3 3 2 1 1 2 2 1 0 1 2 3 4 3 1 1 2 2 2 3 4 4 4 4 4 4 4 3 2 2 3 3 3 1 1 1
4 4 4 4 4 4 4 4 4 4 4 3 3 2 2 2 2 3 3 3 2 1 2 2 2 3 3 3 3 3 3 3 3 3 2 2 2 2 2 2 2 3 3 3 2 1 0 1 1 2 3 3 3 2 1 2 1 1 1 1 1 1 2 3 2 2 2 3 3 2 2 3 3 3 3 3 3 2 2 2 3 4 4 3 2 2
4 4 4 4 4 4 4 3 3 3 4 4 3 2 1 1 2 2 3 3 2 2 1 1 2 2 3 2 2 2 2 2 2 2 2 2 3 3 2 2 2 2 2 3 3 2 1 1 1 1 1 2 2 2 2 1 1 1 1 1 1 1 1 2 3 3 3 3 3 2 2 2 2 3 2 2 2 2 2 2 2 2 2 2 2 2
4 4 4 4 4 4 3 3 3 3 3 4 3 3 2 1 2 2 3 3 2 2 1 1 2 2 2 1 1 1 2 2 2 2 2 3 4 3 3 2 1 1 2 2 3 3 3 2 2 1 1 1 1 1 2 2 1 1 1 1 2 2 3 3 2 2 3 3 3 3 2 2 2 2 2 3 3 3 2 2 3 3 2 1 1 1
4 4 4 4 4 4 4 4 4 3 3 3 3 3 2 2 2 2 3 3 3 2 1 1 2 2 2 1 1 1 1 2 2 1 1 2 3 3 2 1 1 1 1 1 2 2 2 3 3 3 2 1 0 1 2 2 1 1 2 1 1 1 2 3 2 2 2 2 3 3 3 2 2 2 3 3 4 4 3 3 3 3 3 2 2 2
5 5 4 4 4 4 4 4 4 4 3 3 3 2 2 2 2 3 3 3 3 2 2 2 2 2 2 2 2 2 1 0 1 1 1 1 2 2 2 1 0 0 1 1 1 1 1 2 3 3 3 2 1 1 2 2 2 2 2 1 1 1 2 2 2 2 1 1 2 2 3 3 3 2 3 3 3 4 4 3 3 3 3 2 2 2
5 5 5 5 4 4 4 4 4 4 4 3 3 2 2 2 3 4 3 3 3 3 2 2 2 2 2 2 2 2 2 2 1 1 1 1 1 2 1 1 1 0 0 0 0 1 1 1 1 2 2 2 2 2 2 2 2 2 2 1 1 1 1 2 2 2 1 1 1 1 2 2 2 2 2 3 3 3 4 4 4 3 2 2 2 2
5 5 5 5 5 5 4 4 4 4 4 4 4 3 2 3 4 4 3 3 3 3 3 3 3 3 2 2 2 2 2 2 1 1 1 1 1 1 1 1 1 1 1 1 1 1 1 1 2 3 3 3 3 2 2 2 2 2 1 1 1 1 2 2 2 2 1 1 1 0 1 1 0 0 1 2 3 4 4 4 4 3 3 2 2 2
5 5 6 5 5 5 5 5 5 5 5 5 5 4 3 2 2 2 3 3 3 3 3 3 3 3 3 2 2 2 2 2 1 1 1 1 0 0 0 1 1 2 2 2 2 2 2 1 1 3 5 5 4 3 2 2 2 1 1 1 1 2 2 2 2 2 1 2 1 1 1 0 0 0 1 1 2 3 4 4 4 4 3 3 2 2
5 5 5 5 5 5 5 5 5 5 5 5 5 5 4 3 3 2 2 3 3 3 3 3 3 3 3 3 3 3 3 2 2 1 1 1 1 1 0 1 1 2 2 2 2 3 3 2 2 1 3 6 7 6 3 3 2 1 0 1 1 2 2 2 2 2 2 2 1 1 1 1 1 1 1 1 1 2 3 4 4 4 4 3 3 3
Wind_Direction
108 112 100 86 96 101 71 33 47 74 83 67 51 39 35 44 47 46 43 42 40 37 37 35 33 29 22 23 24 23 22 17 10 2 352 344 340 339 340 327 306 275 226 192 170 152 137 122 112 104 100 93 80 58 43 36 30 25 22 25 43 59 66 65 62 60 61 64 65 64 61 58 58 59 62 67 71 75 79 83 85 88 89 89 89 89
115 115 111 95 103 113 112 50 52 74 88 77 59 38 29 40 42 39 39 41 40 37 32 25 25 25 19 16 16 17 16 12 6 359 348 339 334 331 329 324 313 293 243 195 169 151 137 125 118 115 116 119 111 88 67 58 51 46 43 45 51 57 62 62 61 62 64 70 73 74 74 70 67 65 64 66 68 70 72 74 77 80 82 83 82 81
141 138 144 125 116 120 129 105 74 75 86 86 77 57 46 51 47 39 33 33 35 35 32 20 17 19 20 12 10 10 9 6 3 356 348 338 330 324 320 317 310 298 257 203 171 154 142 133 129 130 135 136 125 105 87 77 69 64 59 56 56 59 64 67 69 70 72 75 79 82 84 82 79 76 73 71 70 70 70 69 71 73 74 77 78 78
151 153 157 146 127 121 134 134 121 102 90 90 84 74 66 66 61 48 36 36 35 34 31 14 10 14 20 10 4 2 2 1 359 355 348 338 329 320 313 308 302 292 261 210 175 158 147 141 139 140 142 137 124 109 98 88 81 75 70 65 64 65 70 75 78 80 80 79 81 85 88 90 89 87 83 81 78 75 73 72 71 70 70 71 72 73
158 157 154 146 134 129 133 134 128 114 95 88 81 75 70 77 82 76 46 44 45 44 34 16 12 17 24 8 357 354 356 357 356 354 348 340 330 319 309 301 294 284 260 215 180 161 152 147 145 144 141 133 123 112 104 97 90 84 79 75 72 73 77 81 84 85 83 80 80 82 86 90 91 92 90 88 84 81 77 74 71 68 64 62 62 62
158 153 146 140 136 135 137 139 133 120 101 87 78 74 77 93 119 135 89 56 54 54 45 30 24 32 35 11 354 350 350 352 353 353 350 342 332 321 309 298 289 279 261 222 187 166 155 151 147 144 140 133 125 117 110 103 96 91 87 83 82 81 83 85 86 85 83 81 80 80 82 85 88 90 91 91 88 86 82 78 73 68 63 59 56 54
151 145 137 131 128 129 131 148 150 142 122 111 99 87 80 95 141 156 148 119 105 100 108 132 91 63 46 14 356 347 343 346 350 352 352 344 335 324 311 299 288 275 258 224 191 171 157 153 149 146 141 136 128 121 114 107 101 97 93 91 89 89 89 89 88 86 84 81 80 79 79 81 84 86 89 89 89 88 86 83 78 73 67 61 55 51
150 150 149 139 132 128 123 146 162 161 144 135 132 132 136 142 212 204 187 165 153 145 138 107 68 54 43 14 355 343 334 336 342 348 352 346 336 324 312 302 290 275 257 223 193 172 158 154 151 147 143 137 130 123 116 109 104 100 98 96 94 93 93 91 89 87 84 82 79 78 77 77 78 80 82 83 84 85 85 84 81 77 72 66 59 52
154 157 167 159 146 138 135 144 162 167 158 145 144 146 148 155 174 200 196 173 157 141 111 67 48 36 25 7 347 333 324 324 330 345 356 351 338 324 312 303 290 272 252 219 191 172 159 154 150 146 141 135 129 123 117 111 107 104 102 100 99 97 96 93 90 88 85 83 80 78 76 74 73 73 73 73 74 74 75 75 74 73 71 66 60 54
153 155 155 148 135 131 132 137 143 150 151 138 135 139 144 152 158 165 164 161 154 128 93 73 57 39 15 358 339 325 321 325 338 354 4 353 340 327 316 306 289 263 240 209 186 169 158 153 148 144 138 133 128 123 118 113 110 108 107 105 104 102 100 96 93 90 87 85 82 79 77 74 71 69 68 66 65 64 63 62 61 60 59 56 53 48
149 149 141 128 98 72 91 105 110 114 120 102 82 68 83 163 164 161 155 154 145 78 67 72 69 58 30 355 332 320 320 328 345 359 4 352 342 333 324 310 289 261 227 196 176 163 154 149 144 139 134 130 127 124 120 116 114 113 112 111 109 107 104 101 98 94 91 88 85 82 80 76 72 70 67 64 62 60 57 56 53 51 48 45 42 38
145 141 130 121 106 86 75 74 76 84 104 101 92 74 299 244 205 172 153 149 136 98 70 68 72 75 70 348 314 310 318 333 350 359 0 352 347 342 333 318 296 260 207 175 161 153 147 141 137 133 131 130 128 127 124 121 119 118 117 116 115 112 109 106 102 99 96 93 90 88 85 81 77 73 70 66 63 59 56 53 50 47 44 40 37 32
128 124 118 116 115 117 113 106 102 104 127 145 158 172 198 223 216 184 143 135 127 114 97 80 75 79 126 241 276 294 311 329 345 356 0 358 355 350 338 328 324 323 141 143 140 137 136 132 129 128 128 129 130 129 127 125 123 122 121 120 119 117 114 111 108 106 103 100 97 94 92 87 83 79 75 70 65 61 57 53 50 46 43 40 36 31
118 115 115 124 133 139 139 141 146 155 170 182 188 190 187 202 197 168 120 113 110 106 100 96 91 92 225 244 266 287 308 328 347 356 5 7 2 352 336 335 348 14 57 93 102 106 112 117 120 122 125 129 131 131 130 128 126 126 126 124 123 121 119 117 115 113 111 109 105 101 97 92 88 83 79 73 68 63 58 53 49 46 43 40 36 32
137 139 144 154 159 161 159 158 161 165 167 166 167 179 188 200 188 157 117 116 115 108 95 93 90 83 250 247 271 304 334 360 9 10 10 9 2 353 340 347 6 26 44 67 73 73 77 90 100 111 119 128 133 134 133 131 131 131 130 129 128 127 125 124 122 120 118 115 111 107 102 97 92 87 82 77 71 66 60 55 51 47 44 41 38 35
150 153 160 167 172 174 172 167 164 159 150 144 148 163 183 198 195 158 117 121 122 118 106 99 92 79 281 253 290 356 14 27 25 19 20 8 359 352 346 2 26 39 39 52 52 47 45 60 76 92 110 125 130 131 130 133 134 135 135 134 133 132 131 130 128 126 124 121 118 115 111 106 101 96 90 84 79 73 67 62 56 52 47 44 40 37
157 162 166 170 175 178 175 165 155 147 141 142 153 173 193 200 191 145 111 115 116 116 120 121 122 128 190 287 339 17 35 41 36 28 48 16 354 345 343 8 45 54 42 45 41 33 29 41 56 75 107 123 126 126 128 132 135 137 137 136 135 135 134 133 132 131 129 129 127 126 125 122 118 113 107 100 93 85 79 72 65 58 51 46 41 36
163 167 166 170 174 176 171 162 151 140 137 141 149 162 194 209 137 104 103 112 119 124 127 125 131 140 151 200 290 344 36 49 49 44 65 37 350 337 339 1 49 68 57 46 34 25 21 18 18 35 112 123 124 125 127 132 135 137 137 136 136 136 136 137 137 137 138 139 140 141 142 142 139 135 130 122 114 105 95 86 76 65 54 46 38 31
165 167 166 171 172 170 167 164 158 151 148 150 150 148 139 112 79 83 95 114 126 132 131 126 127 134 138 158 189 288 35 64 83 93 90 60 349 335 340 352 29 59 66 52 34 22 19 10 360 2 68 119 125 127 131 134 138 139 138 138 139 140 141 144 146 149 152 155 158 161 163 163 161 158 153 147 141 132 123 113 101 83 58 38 25 16
161 165 172 170 165 163 169 169 164 158 155 152 148 144 145 141 126 111 116 122 124 122 120 121 128 137 139 143 146 67 15 53 91 103 105 84 346 336 346 352 16 52 66 54 33 20 18 14 6 5 24 91 116 130 140 144 146 146 146 147 148 151 155 160 165 170 175 178 181 182 183 182 181 178 175 172 170 167 165 163 161 158 99 348 345 346
159 169 178 169 166 167 172 172 166 158 152 145 141 141 147 148 147 147 149 136 120 108 102 110 124 136 132 132 130 358 350 47 103 118 114 85 8 342 344 349 10 50 68 51 30 20 20 22 13 6 8 35 68 113 146 154 159 161 162 165 168 173 178 185 190 195 199 200 201 200 199 197 195 194 192 192 193 193 195 198 202 213 232 262 292 311
158 166 172 172 170 168 165 160 157 155 149 146 148 152 159 160 161 163 163 148 135 125 117 112 109 105 101 106 105 351 342 30 132 142 118 96 24 330 332 336 2 50 69 40 16 12 21 27 21 14 15 22 26 34 64 128 166 177 179 187 193 198 202 208 212 215 217 217 216 214 211 209 206 204 203 204 204 206 207 210 214 220 229 242 263 285
149 154 159 165 164 157 148 145 147 148 148 149 153 159 163 163 163 163 161 151 137 123 109 97 85 76 73 79 66 16 354 339 280 167 117 118 124 304 322 327 354 42 66 34 11 8 17 29 27 17 13 17 19 20 22 23 22 20 15 263 240 237 234 234 233 233 232 230 228 226 223 220 217 215 213 212 212 212 213 214 217 221 226 233 245 262
136 140 146 151 149 140 133 135 136 134 130 126 125 124 126 129 131 132 131 121 111 104 98 90 78 65 54 61 48 17 352 337 322 308 113 124 143 262 316 334 4 35 42 32 18 12 17 33 32 25 15 16 16 16 15 14 13 11 10 11 9 5 359 345 317 285 266 253 245 240 236 232 229 227 225 223 221 219 218 219 220 222 225 229 235 245
129 132 137 140 139 137 133 133 133 130 122 114 109 106 104 100 96 93 89 89 92 96 99 93 86 72 45 44 30 4 336 335 337 12 113 119 123 316 323 349 16 32 355 360 11 21 28 39 39 31 23 16 14 13 12 10 8 7 7 7 8 8 9 5 1 354 341 323 302 282 266 253 247 242 237 234 231 228 226 224 224 224 225 227 230 235
123 126 129 131 131 131 131 131 131 130 128 124 122 122 119 111 103 96 89 91 100 107 107 100 96 90 47 37 12 341 323 335 348 10 101 116 114 71 343 355 12 12 326 338 1 20 32 41 36 29 26 15 10 9 10 9 8 7 5 5 4 4 3 3 1 359 356 354 350 343 330 317 300 280 263 251 243 237 232 230 228 227 227 228 228 231
118 120 122 123 125 125 127 128 128 129 128 128 130 131 129 121 114 110 112 124 130 128 122 118 116 108 63 60 16 315 315 340 349 354 351 99 103 87 359 350 357 1 345 343 360 18 34 41 33 21 22 11 4 4 9 10 11 10 9 8 7 6 5 4 0 358 358 356 354 353 352 352 348 339 329 305 277 255 242 235 231 228 226 224 219 216
115 116 117 119 121 122 124 125 127 128 129 130 131 132 129 123 124 132 149 150 142 133 129 130 130 130 128 134 182 291 313 341 342 331 318 65 88 91 345 341 360 18 15 356 357 14 34 39 28 12 7 6 2 2 6 9 11 12 13 14 16 17 17 13 10 7 4 1 359 358 357 357 358 358 357 349 334 309 275 250 239 232 225 207 164 106
111 112 112 114 117 120 122 123 125 127 128 128 127 124 115 114 128 143 156 148 140 133 136 134 134 134 138 138 127 359 344 344 326 313 302 72 87 98 268 346 13 28 33 26 20 19 21 16 8 357 348 355 359 0 359 5 8 10 11 17 23 28 28 25 22 18 16 13 9 6 3 1 0 0 0 358 354 345 327 296 265 240 210 168 136 123
94 93 92 94 98 103 107 109 114 117 117 114 109 100 82 86 110 132 141 137 136 137 142 137 132 130 129 114 95 55 345 311 301 295 283 101 109 128 218 38 29 25 36 59 54 38 9 345 336 337 340 347 351 353 352 1 5 5 4 14 25 32 32 29 27 25 23 21 19 15 12 8 4 0 358 357 355 351 345 333 318 281 141 121 117 122
81 78 71 67 67 70 71 70 77 84 90 85 79 72 64 69 87 109 123 129 132 134 137 134 134 135 132 120 118 131 235 268 278 283 110 109 118 134 119 85 47 16 9 77 92 91 26 319 316 328 351 352 350 349 351 1 4 4 359 13 25 30 29 27 26 25 26 24 23 21 18 13 9 4 359 355 352 349 346 340 342 360 103 117 128 147
90 87 82 72 65 62 62 61 60 61 62 60 58 57 61 66 74 86 102 116 123 124 124 125 125 124 117 118 128 147 190 238 250 243 116 107 109 113 108 101 77 28 356 59 106 127 144 226 293 319 340 344 341 339 341 356 4 6 3 19 26 25 21 21 22 23 24 23 22 21 19 15 11 7 3 358 352 346 341 336 337 347 93 138 163 186
96 91 85 78 71 66 63 63 63 63 61 57 55 55 57 62 66 68 70 78 96 112 121 123 120 114 97 93 99 116 168 240 243 222 121 110 108 109 97 93 83 62 26 36 68 101 125 159 269 307 320 322 322 323 327 344 358 6 6 19 21 15 9 11 14 16 16 17 18 17 15 12 10 7 4 360 354 347 339 333 327 322 302 174 180 191
99 94 87 81 75 69 64 64 66 67 67 64 61 59 59 62 63 62 59 54 62 83 113 125 129 130 126 110 97 91 254 257 253 194 102 105 112 115 106 96 96 91 74 58 55 62 77 89 324 307 312 311 311 312 314 328 344 357 358 14 16 8 358 359 0 2 2 6 10 10 9 6 4 2 0 357 353 347 341 333 324 315 305 252 204 192
98 93 89 87 85 82 78 75 75 76 74 67 62 59 61 64 64 63 60 56 56 61 76 101 123 136 142 140 140 147 194 232 239 110 92 105 112 113 102 107 116 114 101 92 85 81 79 52 16 346 335 322 314 309 305 306 317 328 327 3 21 15 354 351 351 350 351 359 2 2 359 357 356 356 353 351 348 346 341 336 327 319 312 292 262 222
101 97 95 98 100 102 100 97 95 92 87 75 64 57 60 62 63 62 59 58 62 65 68 66 72 90 121 136 142 147 159 184 186 71 78 99 111 113 107 127 134 124 111 109 106 103 101 69 26 16 19 336 315 308 309 312 321 330 336 351 12 21 354 345 345 349 353 359 359 356 352 352 351 348 343 345 345 344 343 342 338 331 323 310 295 270
109 109 110 111 115 118 119 117 115 113 107 95 77 65 64 63 62 60 58 54 57 64 68 65 60 57 57 75 96 111 125 112 57 41 51 73 96 108 112 128 137 130 123 128 130 125 115 95 43 15 19 297 278 291 309 326 339 345 343 338 342 349 349 340 343 353 4 360 354 349 348 349 347 342 338 343 344 344 345 348 348 346 341 330 317 302
121 125 131 131 131 131 132 133 134 131 124 114 100 86 76 73 70 68 65 59 59 62 67 64 61 57 55 62 67 71 76 63 47 37 37 45 71 99 110 114 118 122 126 140 142 139 129 122 103 359 309 273 266 272 295 326 336 334 322 318 318 326 331 334 352 6 13 355 346 342 346 346 343 338 336 341 343 346 346 347 351 354 353 344 333 321
137 143 150 155 154 148 143 145 144 138 126 116 111 105 97 87 81 76 73 70 67 67 70 74 72 66 58 61 63 64 64 62 57 48 37 37 55 90 112 117 121 121 105 123 131 133 132 140 151 172 211 261 278 286 295 310 313 309 308 315 322 326 323 1 25 27 20 358 347 343 341 336 334 333 333 340 346 348 343 334 339 348 357 352 342 333
148 151 157 162 162 158 149 143 139 132 122 114 110 106 103 95 85 76 73 74 73 72 74 80 80 76 67 62 58 55 53 52 54 54 49 36 41 71 111 124 133 138 128 106 108 119 128 141 155 168 173 187 231 279 296 291 283 291 324 338 334 324 321 356 23 30 25 2 345 336 330 327 328 332 334 336 336 332 320 311 318 330 348 0 356 342
152 152 154 152 142 125 109 115 119 122 121 118 114 110 109 104 98 89 75 69 62 58 59 70 73 70 63 58 56 53 49 46 48 54 64 47 35 46 86 119 129 133 129 112 96 103 123 138 149 162 169 169 182 231 269 268 274 292 350 329 289 284 294 318 351 10 351 323 314 317 325 330 333 334 330 325 313 293 272 276 286 295 309 323 127 125
152 148 145 136 125 114 107 110 114 118 119 119 121 125 130 125 120 112 97 75 50 29 21 45 60 63 57 48 41 38 40 37 40 51 71 66 56 55 73 102 121 129 127 112 95 83 106 133 148 160 171 164 162 191 265 266 268 269 216 241 270 287 298 302 314 337 337 322 315 316 332 334 331 326 319 313 303 290 276 263 264 270 276 252 203 180
143 133 126 123 123 124 123 118 118 121 125 124 127 132 137 133 123 114 102 91 76 50 33 49 67 73 67 47 24 11 12 13 20 33 58 83 87 80 80 93 111 123 126 119 113 103 76 128 146 161 172 157 153 164 236 266 273 266 227 223 276 340 334 315 313 322 332 324 322 326 338 332 319 307 300 296 294 293 289 279 277 276 276 257 239 226
120 111 110 115 118 119 115 118 126 135 139 137 135 133 129 116 106 102 97 95 88 74 54 60 69 73 70 55 23 349 338 347 357 8 23 72 95 102 98 100 105 115 121 127 131 134 123 149 174 179 160 143 145 161 201 235 259 265 249 210 180 172 230 279 300 317 325 322 322 326 333 326 314 303 296 295 296 297 296 293 291 287 277 256 234 232
112 112 116 122 125 127 128 134 139 141 139 138 135 132 131 112 98 98 104 103 94 80 75 81 80 74 66 53 22 355 345 348 356 7 13 41 57 72 95 112 122 122 116 131 139 143 145 159 172 176 145 127 139 169 200 216 238 258 254 224 208 210 230 253 273 290 301 309 312 317 326 327 325 322 323 320 315 309 302 302 301 297 288 274 243 234
120 123 129 133 137 141 144 144 141 136 132 129 128 129 131 110 97 96 105 107 105 100 99 95 91 91 95 93 77 47 17 355 352 358 9 21 21 24 42 84 116 130 119 122 131 138 143 150 151 146 133 123 150 227 218 208 216 244 269 269 273 277 279 277 268 258 261 290 302 310 322 340 358 1 345 328 317 309 301 295 293 291 291 285 270 251
134 136 139 141 142 142 142 140 139 136 134 130 129 130 133 121 107 100 100 104 109 112 108 94 97 108 125 135 137 132 130 83 323 322 327 6 10 1 353 5 40 128 135 131 136 142 145 145 145 144 142 143 196 251 246 219 209 214 238 259 293 315 306 288 272 256 243 269 296 314 334 356 10 7 344 328 317 310 306 299 289 279 277 280 278 272
145 145 145 145 143 141 141 143 144 143 140 136 133 135 147 145 132 121 111 112 114 113 107 100 105 117 135 151 158 159 157 160 189 276 296 328 349 353 348 349 3 43 110 148 181 202 209 195 184 176 169 167 183 215 233 221 212 210 216 215 225 271 278 276 275 273 271 271 294 329 357 12 8 351 333 333 328 321 314 311 305 296 284 280 281 281
147 148 149 148 147 146 149 152 153 151 146 140 138 139 154 154 142 133 128 129 124 119 115 120 125 131 141 156 164 167 161 161 175 212 254 288 320 337 342 3 25 32 29 18 11 359 333 276 242 231 225 204 189 184 194 201 205 207 206 194 193 214 252 273 282 291 304 306 315 2 57 74 87 355 354 345 328 316 312 313 311 307 299 292 283 279
147 148 150 151 152 154 156 158 158 156 151 146 144 145 151 148 135 125 127 130 129 129 131 137 139 142 149 159 164 165 167 171 185 208 231 226 233 30 5 40 51 48 37 24 17 15 18 4 279 239 232 220 206 189 174 176 179 184 198 213 209 210 233 266 280 295 316 322 329 352 47 63 93 95 84 9 322 311 310 312 311 307 302 303 299 291
147 148 151 153 156 157 159 161 161 160 155 150 148 146 147 145 138 131 128 132 135 138 140 143 145 148 155 162 166 169 173 174 182 196 213 185 149 113 57 62 70 68 61 39 20 11 16 20 9 321 260 223 211 200 177 164 155 145 308 252 230 216 225 254 272 289 312 319 328 345 17 28 47 68 84 57 343 323 319 316 310 305 302 309 313 313